Wind_Speed
14 13 14 12 10 9 8 8 8 8 8 10 12 12 15 16 14 13 15 14 14 12 10 8 7 2 5 7 7 6 7 7 7 4 7 9 7 5 6 7 8 10 11
10 10 11 10 9 8 7 8 8 10 10 11 13 14 16 18 17 20 21 18 16 17 16 14 12 6 6 2 2 5 7 8 6 8 11 6 10 9 10 11 12 12 13
15 13 14 12 10 8 8 6 7 8 10 13 16 17 18 18 19 20 19 19 20 19 17 17 16 15 14 10 6 3 2 8 7 10 8 8 11 10 11 11 10 9 11
11 17 17 15 12 9 9 7 6 6 9 12 14 16 18 19 21 20 21 21 20 19 17 17 17 16 14 12 11 9 8 7 6 13 11 12 9 9 8 10 10 9 10
13 16 15 14 11 9 8 6 6 6 7 9 11 13 13 16 18 18 19 20 19 19 19 18 17 15 13 11 10 11 9 10 11 13 13 9 8 8 5 4 8 9 7
15 16 14 13 10 8 6 6 6 6 7 7 9 11 11 11 11 12 14 16 17 17 16 16 16 15 13 14 14 12 11 9 11 10 8 5 6 4 5 8 10 3 1
13 14 14 13 13 9 3 4 4 4 5 7 8 10 12 12 9 9 10 12 13 16 16 15 16 14 13 13 14 14 15 13 10 8 10 7 4 2 6 9 5 2 2
12 12 14 13 12 8 6 8 7 6 6 7 8 9 11 11 9 9 8 9 11 12 12 13 14 15 15 12 12 15 16 16 14 11 10 9 7 5 4 3 4 2 8
20 19 19 14 14 16 10 15 12 10 8 9 8 8 8 9 7 6 6 9 10 11 11 9 9 10 11 10 10 13 15 16 14 14 13 11 8 5 2 2 4 7 2
15 17 19 17 18 17 20 22 20 14 11 10 8 7 6 6 7 5 5 7 10 10 9 9 8 5 6 7 5 7 11 10 9 9 11 11 9 7 5 3 4 5 1
5 7 9 11 18 19 18 22 21 17 13 12 9 8 6 4 8 8 5 4 7 7 8 10 9 8 8 7 6 4 5 5 4 4 6 7 7 8 9 9 9 2 6
2 2 1 2 9 13 20 23 24 20 18 15 11 9 7 6 6 7 6 4 4 5 7 10 11 9 9 9 10 7 0 2 2 2 3 4 4 4 5 5 6 7 5
3 2 1 2 5 12 18 22 25 23 20 16 12 9 7 6 6 5 9 8 5 6 10 10 10 8 9 10 10 10 10 9 8 5 3 4 4 4 4 6 5 4 3
2 3 3 3 7 15 19 23 24 22 21 16 13 11 9 8 8 8 9 9 9 9 8 8 7 7 7 7 7 7 7 7 6 6 6 6 6 5 5 6 6 7 6
5 6 6 7 10 14 16 17 18 18 17 16 12 10 11 9 9 9 8 9 9 9 8 6 5 3 2 2 3 3 3 3 4 5 6 7 6 6 7 7 7 7 6
7 7 8 11 13 15 17 18 14 12 10 7 8 8 9 8 10 9 9 9 9 8 5 3 2 2 3 3 3 4 3 3 6 8 7 6 6 7 6 7 6 5 5
8 9 10 10 11 14 15 17 18 13 11 10 9 9 7 10 9 7 7 7 7 6 4 3 4 3 1 0 1 2 2 3 5 8 8 6 6 7 6 6 7 6 4
6 8 9 10 11 12 12 13 14 15 13 10 9 7 8 8 8 7 7 7 7 6 4 3 4 4 5 4 4 4 4 4 5 6 6 6 5 8 7 6 6 6 6
10 11 12 13 13 12 12 13 12 10 9 10 10 9 9 9 8 7 6 7 9 7 5 5 6 7 7 8 7 7 6 7 7 8 8 8 9 7 7 7 8 9 9
14 15 16 16 15 14 14 13 12 11 10 10 10 10 9 8 8 8 8 9 7 5 2 2 2 4 6 7 8 9 9 9 9 10 10 9 9 10 10 11 11 11 10
16 15 14 13 13 12 12 11 11 10 9 8 7 8 7 6 8 9 9 6 5 5 5 4 4 4 5 7 8 8 9 10 10 11 11 11 12 13 12 14 15 15 15
16 15 14 13 12 12 12 11 9 9 9 8 7 7 7 8 7 7 7 6 6 8 10 11 11 10 10 10 9 9 9 10 11 11 11 12 14 16 17 19 18 17 15
15 16 16 16 16 15 15 15 14 14 15 15 13 13 14 13 12 11 9 9 10 10 9 10 13 13 10 8 6 8 8 7 8 9 11 13 15 15 15 15 15 15 14
16 17 18 18 16 15 14 14 13 14 15 13 12 13 17 18 16 11 10 10 9 8 6 5 7 7 6 5 3 3 5 7 9 10 11 13 14 15 15 14 13 13 13
17 19 19 17 17 17 15 15 14 12 11 11 11 10 10 13 15 13 9 7 7 6 6 5 5 4 3 1 2 4 7 11 13 13 11 11 11 11 11 10 10 10 10
18 20 21 18 17 16 15 15 15 13 12 11 11 11 11 13 12 11 9 8 8 8 7 5 4 2 1 3 5 7 9 10 10 11 9 9 9 10 9 9 10 9 9
Wind_Direction
148 152 136 128 109 101 94 83 75 64 43 42 56 64 65 62 62 70 70 67 60 58 52 43 44 119 169 195 200 204 192 166 125 116 139 147 119 116 97 93 88 78 68
139 138 121 130 112 107 103 86 80 73 65 57 59 66 66 67 67 68 69 67 68 62 59 64 62 75 96 119 221 230 226 199 152 139 143 126 118 120 119 113 100 89 79
166 156 161 149 135 130 119 106 88 84 81 75 69 67 67 68 69 67 69 71 68 65 62 61 61 70 69 70 76 86 107 188 182 162 137 139 125 135 121 106 92 85 89
166 173 171 162 157 150 140 131 112 98 97 89 83 74 69 71 70 71 73 72 72 71 68 67 63 61 59 59 63 71 95 119 138 150 127 131 129 139 123 110 92 92 88
185 184 177 164 161 155 152 144 139 122 113 101 97 91 84 76 71 73 72 71 68 70 73 73 69 67 67 67 64 67 91 105 116 120 120 130 137 146 152 143 124 108 85
201 189 179 168 157 159 165 159 158 145 132 118 109 102 98 94 84 73 67 76 71 72 73 72 76 75 74 74 76 77 80 102 115 120 127 119 145 163 169 162 148 125 122
199 179 172 165 158 151 164 199 189 165 153 140 123 117 109 105 92 90 85 78 76 74 75 72 69 66 69 74 79 82 81 79 81 107 110 105 123 183 178 167 159 143 147
175 176 173 173 163 149 186 244 225 209 187 164 138 128 122 111 97 88 97 92 89 83 78 72 70 68 65 71 83 88 90 89 87 87 83 77 72 93 122 165 206 151 136
186 184 173 176 174 143 188 238 226 213 196 180 152 131 134 127 117 92 97 102 102 93 80 80 79 74 66 58 69 89 93 89 86 80 76 75 71 77 95 146 168 158 185
191 191 184 176 180 197 214 221 216 203 197 182 163 145 136 147 154 130 117 104 104 97 89 81 75 82 67 57 63 91 98 102 94 82 78 67 58 48 26 339 263 221 274
177 180 203 221 216 214 215 213 197 190 184 176 163 146 144 138 171 164 148 111 100 99 94 90 88 85 87 79 90 116 119 125 119 106 91 64 61 57 51 48 43 331 254
120 80 230 237 252 231 225 203 191 191 178 170 158 145 135 123 127 170 168 135 102 102 104 103 98 88 87 74 59 56 152 232 208 180 128 38 47 29 21 16 25 37 45
132 88 60 203 231 225 193 172 173 180 178 168 163 153 141 129 126 140 169 168 137 129 115 111 109 91 78 74 59 56 65 79 86 86 34 357 331 326 332 346 339 319 314
201 147 123 128 149 169 172 178 176 178 177 174 167 162 158 151 147 135 141 136 138 136 121 123 125 108 93 74 74 72 69 67 56 45 19 352 338 326 322 333 336 330 322
126 104 107 130 140 142 148 156 171 179 186 175 171 174 168 158 147 143 145 145 145 141 136 136 144 148 131 77 51 33 23 25 18 3 349 347 345 347 349 330 323 324 320
132 124 125 123 126 127 128 121 129 141 152 158 159 169 161 155 146 138 133 140 145 146 151 177 184 111 56 22 332 312 321 334 340 334 334 342 344 341 346 351 337 321 324
158 144 139 133 136 135 135 136 129 126 132 137 145 152 157 158 158 155 154 155 158 165 174 167 160 146 136 60 5 317 310 316 331 330 318 312 325 332 323 322 349 338 337
165 161 150 152 148 144 140 140 143 145 148 144 147 151 155 162 164 168 170 173 175 179 179 178 198 214 235 250 260 274 273 271 300 325 328 315 316 325 305 307 332 330 328
162 159 153 142 140 139 140 143 145 150 153 154 156 160 160 162 164 167 172 178 178 183 206 228 240 248 253 255 263 270 273 276 296 301 311 315 314 304 301 292 309 305 300
159 151 143 140 137 134 136 139 144 149 154 160 167 170 172 176 180 183 177 174 184 192 214 251 271 271 256 263 276 282 277 277 294 301 301 302 306 294 291 289 294 293 290
156 152 150 150 154 152 155 160 165 170 173 174 171 178 173 169 170 176 185 200 221 248 255 270 260 259 252 258 270 276 272 274 283 292 294 292 290 288 288 287 289 293 279
171 174 179 184 183 191 198 202 206 216 224 224 216 208 206 211 204 197 205 222 253 270 267 256 241 241 245 251 257 267 269 272 280 286 288 286 288 288 287 287 289 286 282
197 206 210 210 216 230 232 231 234 240 246 249 244 236 231 231 229 229 231 240 254 266 272 254 239 234 239 245 242 267 272 289 299 302 304 304 305 305 305 300 290 286 284
213 205 207 211 214 222 224 237 245 246 247 250 257 249 233 228 230 229 235 246 261 256 242 213 197 200 203 210 250 284 292 307 319 322 317 312 309 309 306 301 298 296 293
206 201 202 217 224 219 212 218 232 240 230 233 236 227 215 208 208 213 218 224 204 193 178 165 161 165 177 213 301 319 323 327 326 323 318 317 315 313 315 317 318 310 305
206 207 216 216 198 193 202 212 215 216 219 219 212 201 189 186 186 185 177 168 164 165 165 164 165 184 285 317 325 333 343 349 346 339 349 351 355 357 355 349 342 337 335
Height
803 808 809 812 816 819 821 822 821 821 821 819 815 813 810 810 809 808 807 808 807 806 806 806 806 807 809 811 812 812 813 815 818 824 826 828 828 830 830 830 832 832 832
803 808 810 815 817 819 822 822 823 822 824 822 818 816 815 812 813 811 809 810 811 810 810 809 809 809 810 812 812 812 813 815 817 821 824 827 828 829 831 833 834 834 834
800 804 811 814 818 822 823 825 826 826 826 824 822 822 819 818 816 814 814 814 815 815 815 814 813 813 814 814 815 815 815 816 817 819 824 828 831 833 834 835 836 836 836
806 808 811 813 818 822 823 826 827 829 828 825 825 825 825 824 821 820 820 819 819 820 820 819 818 818 818 818 818 818 818 818 819 821 824 829 832 835 835 836 838 839 839
808 810 811 814 818 822 825 826 829 830 829 828 826 826 828 828 827 827 826 825 826 825 825 825 824 823 823 822 822 822 822 821 822 824 826 830 833 835 836 837 839 839 841
810 811 814 816 818 823 827 828 830 831 830 830 829 828 828 830 830 830 831 829 830 830 830 830 829 828 827 826 825 825 825 825 826 828 830 832 834 836 837 838 840 841 842
810 811 814 817 818 821 827 831 832 832 832 832 831 830 831 832 833 832 831 833 834 835 835 834 834 833 832 831 831 830 830 831 831 832 833 835 836 836 837 839 840 841 841
808 809 813 816 815 812 821 828 832 832 833 833 833 832 832 834 835 835 835 835 836 837 837 838 838 837 837 836 835 835 835 835 836 837 838 838 838 838 838 839 840 840 841
800 801 805 814 816 811 821 826 829 831 833 834 834 834 834 835 837 838 838 838 838 839 839 840 840 840 840 840 839 839 839 840 840 841 841 841 841 840 840 840 839 841 842
801 803 808 808 810 812 817 820 825 830 833 834 835 835 836 836 838 840 841 841 840 841 842 842 843 842 842 842 843 843 842 843 843 843 843 843 843 842 842 842 840 841 841
803 804 806 808 809 811 812 817 822 827 831 834 835 836 837 837 837 839 841 842 842 842 843 844 845 845 845 844 844 845 844 844 844 845 845 845 845 844 843 843 840 839 840
806 807 807 807 809 810 812 812 818 824 828 832 833 835 837 837 838 839 841 843 844 844 845 845 846 847 846 846 845 844 844 844 845 845 846 846 845 845 845 843 842 841 841
802 804 807 806 806 807 808 812 817 822 827 831 833 835 836 837 837 838 840 842 844 845 847 848 848 848 848 847 847 847 847 847 847 847 847 847 846 846 845 844 843 843 843
802 804 802 802 804 805 808 811 816 821 826 830 832 834 836 838 838 839 840 842 844 846 847 848 849 850 849 850 850 850 850 849 849 849 848 847 846 846 845 844 844 843 842
804 803 804 804 805 806 808 811 816 822 826 828 831 834 835 837 838 840 841 842 844 846 848 850 851 850 850 851 851 852 851 851 851 850 850 849 847 846 845 845 844 843 842
803 805 807 807 808 809 811 814 820 823 827 830 832 834 836 838 839 841 842 844 845 847 849 850 850 850 850 851 852 852 852 852 851 851 850 849 848 847 846 845 844 843 841
804 804 807 808 811 812 814 816 820 825 828 831 833 835 838 839 840 841 843 844 845 847 849 849 849 850 851 852 853 853 853 852 852 851 850 849 848 847 846 845 844 842 841
805 806 807 810 812 815 816 819 822 825 829 832 835 836 838 839 840 841 842 844 846 848 848 849 849 849 851 853 853 853 853 852 852 851 850 849 848 847 845 845 844 843 842
804 807 808 809 811 815 817 820 823 827 830 833 835 837 838 839 840 840 842 844 845 847 848 848 849 850 850 851 852 852 851 851 851 850 849 848 847 846 845 844 843 842 841
805 806 807 810 813 816 819 823 827 830 832 834 836 836 837 838 839 840 842 844 845 846 847 847 847 848 849 850 850 849 850 849 849 848 847 846 845 844 843 842 840 839 838
805 808 810 812 815 818 822 826 829 831 833 834 835 835 836 837 838 839 842 843 844 845 846 846 846 846 847 847 847 847 846 846 846 845 844 843 842 841 840 838 837 835 833
805 808 811 813 817 819 823 825 828 831 833 833 834 835 835 836 837 838 840 842 843 843 843 843 843 843 843 843 843 844 844 843 842 841 840 839 838 837 836 834 832 831 829
806 808 810 813 815 817 820 823 825 826 827 828 830 831 832 833 835 837 839 840 840 839 839 839 838 839 840 840 841 841 841 840 839 838 837 835 834 832 830 828 826 825 824
805 806 808 810 812 815 818 820 822 822 823 824 824 825 826 829 831 834 835 836 836 836 836 836 836 837 838 838 838 838 838 837 836 835 834 832 830 827 825 823 822 821 819
803 804 807 809 811 813 816 819 820 821 822 822 822 822 824 825 828 830 831 831 832 834 835 836 837 837 837 837 837 836 835 834 833 831 829 827 825 823 821 820 818 816 815
800 803 806 808 810 812 814 816 818 819 819 819 819 820 822 823 825 827 828 830 831 833 835 836 836 836 836 836 835 833 832 830 829 827 826 824 822 820 819 818 816 814 812